Stations météo

réclame
Mon MeteoGroup
Gelbelsee, Allemagne (10777): Température de l'air & dewpoint: 17.10.2018 11:00:00 - 23.10.2018 11:00:00 (CEST)Gelbelsee, Allemagne (10777): Température de l'air 5cm & Température de l'air -5cm: 17.10.2018 11:00:00 - 23.10.2018 11:00:00 (CEST)Gelbelsee, Allemagne (10777): Température de l'air -20cm & Température de l'air -100cm: 17.10.2018 11:00:00 - 23.10.2018 11:00:00 (CEST)Gelbelsee, Allemagne (10777): Vitesse du vent & gusts: 17.10.2018 11:00:00 - 23.10.2018 11:00:00 (CEST)Gelbelsee, Allemagne (10777): Direction du vent: 17.10.2018 11:00:00 - 23.10.2018 11:00:00 (CEST)Gelbelsee, Allemagne (10777): reduced air pressure: 17.10.2018 11:00:00 - 23.10.2018 11:00:00 (CEST)Gelbelsee, Allemagne (10777): visibility: 17.10.2018 11:00:00 - 23.10.2018 11:00:00 (CEST)Gelbelsee, Allemagne (10777): Ensoleillement: 17.10.2018 11:00:00 - 23.10.2018 11:00:00 (CEST)Gelbelsee, Allemagne (10777): Quantités de précipitations: 17.10.2018 11:00:00 - 23.10.2018 11:00:00 (CEST)
Date & Time tt [°C] td [°C] tt 5cm [°C] tt -5cm [°C] tt -20cm [°C] tt -100cm [°C] ff [km/h] ff [knt] fx [km/h] fx [knt] dd ppp [hPa] vv [km] sd [min] rr [mm]
23.10.2018 11:00:00 6,6 5,1 7,7 8,3 10,0 13,4 16 8 24 13 W 1028,3 17 0 0,0
23.10.2018 10:00:00 5,7 4,5 5,7 7,5 10,1 13,4 10 5 16 8 WSW 1028,5 17 0 0,0
23.10.2018 09:00:00 5,2 4,4 5,1 6,9 10,2 13,4 8 4 15 8 W 1029,0 13 4 0,0
23.10.2018 08:00:00 4,7 4,4 3,4 6,8 10,4 13,4 8 4 13 7 SW 1029,0 6 0 0,0
23.10.2018 07:00:00 5,3 4,7 3,3 7,6 10,5 13,5 5 3 15 8 WSW 1029,6 10 0 0,0
23.10.2018 06:00:00 6,2 5,3 5,0 8,3 10,6 13,5 6 3 12 6 WNW 1030,1 12 0 0,0
23.10.2018 05:00:00 6,7 5,8 6,4 8,6 10,7 13,5 9 5 12 7 WNW 1030,2 15 0 0,0
23.10.2018 04:00:00 6,8 5,5 6,5 8,8 10,7 13,5 6 4 9 5 NW 1030,6 23 0 0,0
23.10.2018 03:00:00 6,9 5,5 6,5 8,9 10,8 13,5 4 2 9 5 WNW 1030,8 30 0 0,0
23.10.2018 02:00:00 7,1 5,8 6,9 9,1 10,9 13,5 4 2 18 10 NNE 1031,1 29 0 0,0
23.10.2018 01:00:00 7,5 5,8 7,2 9,4 11,0 13,5 10 6 19 11 NNE 1031,2 31 0 0,0
23.10.2018 00:00:00 8,5 8,0 8,2 9,6 11,0 13,5 11 6 14 8 N 1031,0 5 0 0,0
22.10.2018 23:00:00 8,4 7,9 8,0 9,6 11,1 13,5 8 4 13 7 N 1030,7 4,6 0 0,0
22.10.2018 22:00:00 8,3 7,4 7,9 9,6 11,2 13,5 9 5 16 9 NNW 1030,8 9 0 0,0
22.10.2018 21:00:00 8,5 5,4 7,0 10,0 11,3 13,5 10 5 21 11 NNW 1030,4 25 0 0,2
22.10.2018 20:00:00 10,0 3,4 9,1 10,5 11,3 13,5 6 3 12 7 NW 1029,3 47 0 0,0
22.10.2018 19:00:00 10,0 2,9 8,5 10,9 11,3 13,6 5 3 11 6 NW 1029,0 52 0 0,0
22.10.2018 18:00:00 10,7 2,5 10,3 11,8 11,2 13,6 5 3 25 14 NW 1028,3 38 0 0,0
22.10.2018 17:00:00 11,2 2,3 11,7 12,5 10,9 13,6 18 10 28 15 NNW 1027,9 40 14 0,0
22.10.2018 16:00:00 12,5 1,9 15,9 12,5 10,5 13,6 15 8 27 15 NNW 1027,3 39 60 0,0
22.10.2018 15:00:00 12,8 1,6 16,8 12,3 10,1 13,6 16 9 23 12 N 1027,1 44 60 0,0
22.10.2018 14:00:00 12,4 2,4 16,8 11,7 9,6 13,6 7 4 14 8 ENE 1027,3 56 60 0,0
22.10.2018 13:00:00 11,2 1,1 16,6 10,9 9,2 13,6 9 5 19 10 N 1027,9 39 59 0,0
22.10.2018 12:00:00 10,5 3,0 16,4 9,5 8,9 13,6 8 5 14 8 N 1028,1 45 60 0,0
22.10.2018 11:00:00 9,6 3,5 13,2 7,5 8,7 13,6 6 3 10 5 NE 1028,4 44 60 0,0
22.10.2018 10:00:00 7,0 2,4 9,2 5,2 8,8 13,6 5 3 8 5 NNE 1029,0 27 60 0,0
22.10.2018 09:00:00 4,0 1,5 3,2 3,7 8,9 13,6 5 3 7 4 N 1029,2 21 50 0,0
22.10.2018 08:00:00 2,3 1,2 -2,3 3,4 9,1 13,6 5 3 9 5 N 1029,0 13 0 0,0
22.10.2018 07:00:00 2,8 1,5 -2,3 3,6 9,4 13,6 4 2 7 4 NNE 1028,5 20 0 0,0
22.10.2018 06:00:00 2,8 1,4 -2,6 3,9 9,6 13,7 3 2 6 3 NE 1028,3 24 0 0,0
22.10.2018 05:00:00 3,0 1,5 -2,6 4,2 9,8 13,7 3 2 5 3 NNE 1028,3 26 0 0,0
22.10.2018 04:00:00 3,6 1,9 -2,0 4,5 10,1 13,7 4 2 5 3 N 1028,3 27 0 0,0
22.10.2018 03:00:00 3,1 1,2 -2,3 4,9 10,3 13,7 3 2 7 4 NE 1028,7 25 0 0,0
22.10.2018 02:00:00 4,9 1,9 -0,1 5,3 10,6 13,7 5 3 8 4 E 1028,6 33 0 0,0
22.10.2018 01:00:00 3,9 1,6 -1,3 5,7 10,9 13,7 3 1 8 5 NNE 1029,0 39 0 0,0
22.10.2018 00:00:00 5,3 1,8 -0,8 6,2 11,2 13,7 5 3 8 4 E 1028,7 41 0 0,0
21.10.2018 23:00:00 5,1 1,8 0,1 6,8 11,4 13,7 4 2 9 5 N 1029,0 46 0 0,0
21.10.2018 22:00:00 6,4 1,8 2,4 7,4 11,7 13,7 5 3 10 5 E 1028,6 47 0 0,0
21.10.2018 21:00:00 6,8 2,2 0,5 8,1 12,0 13,7 4 2 6 4 E 1028,5 47 0 0,0
21.10.2018 20:00:00 7,6 2,5 1,4 9,1 12,2 13,7 4 2 8 5 E 1028,3 53 0 0,0
21.10.2018 19:00:00 8,7 2,5 3,8 10,3 12,3 13,7 5 3 6 4 E 1028,1 53 0 0,0
21.10.2018 18:00:00 10,2 2,6 7,4 11,8 12,3 13,7 5 3 19 10 E 1027,4 57 60 0,0
21.10.2018 17:00:00 11,8 2,3 12,7 12,9 12,1 13,7 14 7 18 10 E 1027,3 44 39 0,0
21.10.2018 16:00:00 12,6 1,5 15,4 13,4 11,8 13,7 14 7 19 10 ENE 1027,5 55 57 0,0
21.10.2018 15:00:00 12,5 2,5 16,2 12,9 11,6 13,8 12 7 19 11 ENE 1027,8 37 36 0,0
21.10.2018 14:00:00 12,2 2,5 17,3 12,7 11,3 13,8 12 7 19 10 E 1028,1 52 36 0,0
21.10.2018 13:00:00 11,5 2,4 15,8 12,5 11,0 13,8 6 3 20 11 N 1028,5 38 51 0,0
21.10.2018 12:00:00 11,0 3,8 15,0 11,6 10,7 13,8 13 7 20 11 NE 1029,2 39 60 0,0
21.10.2018 11:00:00 10,2 3,7 13,2 10,1 10,6 13,8 9 5 18 10 E 1029,6 57 60 0,0
21.10.2018 10:00:00 9,0 3,7 11,1 8,7 10,6 13,8 8 4 14 7 NE 1029,7 27 57 0,0
21.10.2018 09:00:00 6,8 4,2 6,3 8,0 10,7 13,8 7 4 10 5 N 1029,9 18 2 0,0
21.10.2018 08:00:00 6,4 4,1 5,6 7,9 10,7 13,8 6 3 12 7 N 1029,3 16 0 0,0
21.10.2018 07:00:00 6,5 4,1 5,8 7,9 10,8 13,8 8 4 15 8 N 1029,2 18 0 0,0
21.10.2018 06:00:00 6,6 4,2 6,0 7,8 10,9 13,8 8 5 16 9 N 1029,4 18 0 0,0
21.10.2018 05:00:00 6,4 4,2 5,8 7,7 11,0 13,8 8 5 13 7 N 1029,2 18 0 0,0
21.10.2018 04:00:00 6,5 4,2 5,7 7,5 11,2 13,8 9 5 13 7 N 1029,3 17 0 0,0
21.10.2018 03:00:00 6,1 4,1 4,0 7,1 11,4 13,8 8 4 10 5 N 1029,5 16 0 0,0
21.10.2018 02:00:00 6,7 4,5 3,2 7,6 11,6 13,8 6 3 9 5 N 1029,7 17 0 0,0
21.10.2018 01:00:00 6,5 4,8 2,4 7,7 11,9 13,8 6 3 12 6 N 1029,8 14 0 0,0
21.10.2018 00:00:00 7,5 4,3 4,0 8,1 12,1 13,8 7 4 11 6 N 1029,8 23 0 0,0
20.10.2018 23:00:00 7,9 4,8 3,0 8,6 12,3 13,8 6 3 10 5 NNW 1029,5 32 0 0,0
20.10.2018 22:00:00 9,0 4,7 4,0 9,6 12,5 13,8 5 3 13 7 NW 1029,3 31 0 0,0
20.10.2018 21:00:00 10,9 6,3 7,9 10,2 12,7 13,8 9 5 14 8 NNW 1028,9 20 0 0,0
20.10.2018 20:00:00 11,2 7,2 7,0 10,7 12,9 13,8 8 4 11 6 NW 1028,6 13 0 0,0
20.10.2018 19:00:00 10,3 7,3 5,5 11,7 13,0 13,8 5 3 8 5 N 1028,3 12 0 0,0
20.10.2018 18:00:00 12,6 7,2 9,9 13,2 12,9 13,9 6 4 15 8 NNW 1027,3 16 45 0,0
20.10.2018 17:00:00 14,1 7,6 14,7 14,1 12,7 13,9 11 6 20 11 NNW 1027,4 12 49 0,0
20.10.2018 16:00:00 14,4 7,1 14,9 14,6 12,4 13,9 14 7 28 15 NNW 1027,3 15 49 0,0
20.10.2018 15:00:00 15,0 6,0 18,2 14,6 12,1 13,9 16 9 25 14 NW 1027,2 26 48 0,0
20.10.2018 14:00:00 13,8 8,1 15,7 14,3 11,7 13,9 10 5 14 7 WNW 1028,1 12 23 0,0
20.10.2018 13:00:00 13,6 9,0 16,9 13,8 11,4 13,9 8 4 12 6 NW 1028,3 10 5 0,0
20.10.2018 12:00:00 12,7 8,9 14,8 12,6 11,2 13,9 8 4 12 6 NNW 1028,6 8 3 0,0
20.10.2018 11:00:00 11,2 9,1 12,0 11,1 11,1 13,9 6 4 11 6 NNW 1028,3 5 0 0,0
20.10.2018 10:00:00 10,8 9,7 11,1 9,8 11,1 13,9 4 2 8 5 NW 1027,8 3,3 0 0,0
20.10.2018 09:00:00 8,8 8,4 8,6 8,5 11,1 13,9 5 3 8 4 N 1028,0 1,9 0 0,0
20.10.2018 08:00:00 7,9 7,7 7,2 8,0 11,2 13,9 4 2 8 5 N 1027,6 1,9 0 0,0
20.10.2018 07:00:00 6,8 6,4 4,8 7,8 11,4 13,9 3 2 7 4 NW 1027,6 1,9 0 0,0
20.10.2018 06:00:00 6,0 6,0 4,3 7,2 11,6 13,9 5 3 6 3 NNW 1027,1 0,9 0 0,0
20.10.2018 05:00:00 7,1 6,9 2,5 7,5 11,8 13,9 4 2 13 7 N 1026,4 1,3 0 0,0
20.10.2018 04:00:00 7,6 7,4 5,7 7,7 12,0 13,9 10 5 13 7 N 1026,1 1,2 0 0,0
20.10.2018 03:00:00 6,9 6,5 2,8 8,0 12,3 13,9 6 3 8 5 N 1026,1 1,6 0 0,0
20.10.2018 02:00:00 8,3 8,1 2,8 8,4 12,5 13,9 4 2 7 4 N 1025,7 2,0 0 0,0
20.10.2018 01:00:00 8,7 8,1 4,3 8,8 12,7 13,9 6 3 9 5 N 1025,5 2,8 0 0,0
20.10.2018 00:00:00 8,9 8,1 3,9 9,3 12,9 13,9 6 3 8 4 N 1025,3 3,0 0 0,0
19.10.2018 23:00:00 9,6 8,2 5,4 9,9 13,2 13,9 5 3 9 5 NNE 1025,0 4,2 0 0,0
19.10.2018 22:00:00 9,9 8,4 5,5 10,5 13,4 13,9 5 3 11 6 NNE 1024,6 6 0 0,0
19.10.2018 21:00:00 11,2 8,7 8,2 11,1 13,6 13,9 6 4 11 6 NNE 1023,8 8 0 0,0
19.10.2018 20:00:00 11,8 8,7 8,8 11,9 13,8 13,9 6 3 9 5 NNE 1023,4 10 0 0,0
19.10.2018 19:00:00 12,9 8,6 9,3 13,0 13,9 13,9 6 3 10 5 NE 1022,6 13 0 0,0
19.10.2018 18:00:00 14,4 8,7 11,2 14,5 13,9 13,9 5 3 11 6 NE 1021,8 14 10 0,0
19.10.2018 17:00:00 15,7 8,6 14,8 15,7 13,6 13,9 8 5 14 8 NE 1021,5 13 47 0,0
19.10.2018 16:00:00 16,2 8,1 18,1 16,0 13,3 13,9 10 5 14 8 NE 1021,4 16 54 0,0
19.10.2018 15:00:00 16,0 7,9 20,4 16,0 12,9 13,9 5 3 16 9 NNW 1021,6 13 48 0,0
19.10.2018 14:00:00 15,7 8,9 20,0 15,6 12,5 13,9 6 3 11 6 NE 1022,0 10 52 0,0
19.10.2018 13:00:00 14,9 8,7 18,8 14,8 12,1 13,9 5 3 12 7 E 1022,6 - 60 0,0
19.10.2018 12:00:00 14,1 8,8 17,7 13,3 11,9 13,9 6 3 13 7 E 1022,9 - 60 0,0
19.10.2018 11:00:00 12,1 8,9 14,1 11,4 11,8 14,0 11 6 16 9 ENE 1023,1 - 60 0,0
19.10.2018 10:00:00 10,4 8,2 11,1 9,9 11,9 13,9 9 5 16 9 NE 1023,4 - 57 0,0
19.10.2018 09:00:00 9,2 7,8 8,3 8,9 12,0 13,9 9 5 14 8 NE 1023,2 - 5 0,0
19.10.2018 08:00:00 8,8 7,8 7,0 8,7 12,1 13,9 9 5 17 9 NE 1022,7 - 0 0,0
19.10.2018 07:00:00 8,5 7,5 6,3 8,9 12,3 13,9 7 4 16 9 NE 1022,4 - 0 0,0
19.10.2018 06:00:00 8,9 7,9 7,0 9,1 12,5 13,9 8 5 16 9 NE 1022,1 - 0 0,0
19.10.2018 05:00:00 9,1 7,9 7,3 9,3 12,6 14,0 11 6 18 10 NE 1022,0 - 0 0,0
19.10.2018 04:00:00 9,5 8,0 7,6 9,5 12,8 14,0 9 5 14 8 NNE 1022,0 - 0 0,0
19.10.2018 03:00:00 9,5 7,9 6,9 9,9 13,0 14,0 4 2 16 9 N 1022,1 - 0 0,0
19.10.2018 02:00:00 9,9 8,0 8,0 10,2 13,2 14,0 11 6 17 9 NNE 1022,1 - 0 0,0
19.10.2018 01:00:00 10,4 8,1 8,1 10,6 13,4 14,0 8 4 14 8 NNE 1022,0 - 0 0,0
19.10.2018 00:00:00 11,0 8,2 8,7 11,0 13,6 14,0 8 4 15 8 NNE 1022,0 - 0 0,0
18.10.2018 23:00:00 11,4 8,0 9,3 11,5 13,8 14,0 11 6 16 9 N 1021,9 - 0 0,0
18.10.2018 22:00:00 12,4 8,2 9,5 11,9 14,0 14,0 8 4 13 7 NNE 1021,6 - 0 0,0
18.10.2018 21:00:00 13,5 8,7 11,0 12,5 14,2 14,0 10 5 16 9 NNE 1021,0 - 0 0,0
18.10.2018 20:00:00 14,2 9,0 9,6 13,1 14,3 14,0 5 3 8 5 NNE 1020,2 - 0 0,0
18.10.2018 19:00:00 14,6 9,0 9,5 14,3 14,4 14,0 4 2 12 7 N 1019,7 - 0 0,0
18.10.2018 18:00:00 17,0 9,5 15,2 15,8 14,3 14,0 9 5 18 10 N 1018,5 - 38 0,0
18.10.2018 17:00:00 17,5 9,3 17,2 16,5 14,1 14,0 8 5 16 9 N 1018,2 - 26 0,0
18.10.2018 16:00:00 18,3 9,0 21,2 17,1 13,7 14,0 10 5 18 10 N 1018,1 - 57 0,0
18.10.2018 15:00:00 18,2 8,5 21,2 17,0 13,2 14,0 9 5 17 9 N 1018,2 - 57 0,0
18.10.2018 14:00:00 17,9 8,9 22,2 16,4 12,7 14,0 10 6 16 9 N 1018,4 - 60 0,0
18.10.2018 13:00:00 17,3 8,9 22,1 15,3 12,3 14,0 9 5 18 10 N 1019,0 - 60 0,0
18.10.2018 12:00:00 15,5 9,2 20,0 13,9 12,0 14,0 10 5 16 9 N 1019,6 - 35 0,0
18.10.2018 11:00:00 13,8 9,0 15,6 12,6 11,8 14,0 8 5 11 6 N 1020,1 - 29 0,0
18.10.2018 10:00:00 12,8 8,4 14,3 10,7 11,9 14,0 8 4 11 6 N 1020,2 - 57 0,0
18.10.2018 09:00:00 10,9 8,0 10,8 8,7 11,9 14,0 5 3 8 4 NNE 1020,2 - 44 0,0
18.10.2018 08:00:00 8,6 7,5 4,1 8,1 12,1 14,0 4 2 7 4 N 1020,3 - 0 0,0
18.10.2018 07:00:00 9,4 7,8 4,9 8,3 12,3 14,0 5 3 6 3 N 1019,7 - 0 0,0
18.10.2018 06:00:00 9,8 7,9 4,2 8,6 12,5 14,0 4 2 8 4 N 1019,6 - 0 0,0
18.10.2018 05:00:00 10,2 7,9 4,9 9,0 12,7 14,0 6 4 10 5 N 1019,4 - 0 0,0
18.10.2018 04:00:00 11,1 8,1 7,5 9,2 12,9 14,0 9 5 12 6 N 1019,4 - 0 0,0
18.10.2018 03:00:00 10,5 8,5 4,9 9,4 13,1 14,0 5 3 6 4 N 1019,7 - 0 0,0
18.10.2018 02:00:00 10,5 8,5 5,8 9,7 13,4 14,0 5 3 8 4 N 1019,8 - 0 0,0
18.10.2018 01:00:00 10,3 8,3 5,3 10,1 13,6 14,0 5 3 8 4 N 1019,9 - 0 0,0
18.10.2018 00:00:00 10,8 8,3 5,5 10,6 13,9 14,0 4 2 6 3 N 1019,9 - 0 0,0
17.10.2018 23:00:00 11,4 8,8 6,0 11,1 14,2 14,0 4 2 4 2 N 1019,9 - 0 0,0
17.10.2018 22:00:00 12,5 9,4 6,2 11,7 14,4 14,0 3 2 6 3 NNE 1019,5 - 0 0,0
17.10.2018 21:00:00 13,2 9,1 6,8 12,5 14,7 14,0 3 2 5 3 ENE 1019,0 - 0 0,0
17.10.2018 20:00:00 13,7 8,8 7,3 13,5 14,9 14,0 5 3 8 4 E 1018,7 - 0 0,0
17.10.2018 19:00:00 15,6 9,0 9,4 14,9 14,9 14,0 5 3 6 3 E 1018,0 - 2 0,0
17.10.2018 18:00:00 18,0 8,5 15,9 16,6 14,8 14,0 6 3 10 6 E 1017,2 0,2 60 0,0
17.10.2018 17:00:00 18,9 7,8 19,5 17,5 14,5 14,1 8 4 14 7 E 1017,1 0,4 60 0,0
17.10.2018 16:00:00 19,3 8,1 21,7 17,8 14,0 14,1 8 5 15 8 E 1017,0 0,1 60 0,0
17.10.2018 15:00:00 19,6 7,9 23,1 17,6 13,5 14,1 9 5 14 7 E 1017,1 1,6 60 0,0
17.10.2018 14:00:00 18,9 8,2 23,2 17,0 13,0 14,1 6 3 12 7 ENE 1017,8 26 60 0,0
17.10.2018 13:00:00 17,5 8,4 22,3 16,1 12,5 14,0 6 3 11 6 ENE 1018,5 24 60 0,0
17.10.2018 12:00:00 16,9 8,9 20,4 14,5 12,2 14,0 5 3 10 5 SE 1019,1 19 60 0,0
17.10.2018 11:00:00 14,3 8,7 18,0 12,4 12,0 14,1 5 3 7 4 ESE 1019,8 15 60 0,0

tt = Température de l'air
td = dewpoint
tt 5cm = Température de l'air 5cm
tt -5cm = Température de l'air -5cm
tt -20cm = Température de l'air -20cm
tt -100cm = Température de l'air -100cm
ff = Vitesse du vent
fx = gusts
dd = Direction du vent
ppp = reduced air pressure
vv = visibility
sd = Ensoleillement
rr = Quantités de précipitations

stations d'obs. à proximité